User: anonymous   Login
Location: Cruquius
(52.3348°N, 4.6319°E)
Time: 02:15:03
(UTC+00:00)
Language:

CARTOSAT-1 - Orbit

View from above orbital plane
View from above orbital plane
View from above satellite
View from above satellite

Ground track
Ground track

The orbit data is extracted from the following two-line orbital elements,

1 28649U 05017A   21208.54033823  .00000103  00000-0  18644-4 0  9994
2 28649  97.7657 273.6193 0001747 141.6555 218.4784 14.83804805878557
Epoch (UTC): 27 July 2021 12:58:05
Eccentricity: 0.0001747
inclination: 97.7657°
perigee height: 616 km
apogee height: 618 km
right ascension of ascending node: 273.6193°
argument of perigee: 141.6555°
revolutions per day: 14.83804805
mean anomaly at epoch: 218.4784°
orbit number at epoch: 87855

The dashed part of the orbit path shows where the satellite is in the earth's shadow,  

DLR